Location: Pabrico
(37.5827°N, 122.0063°W)
Time: 11:16:45
(UTC+00:00)

ARIANE 5 R/B - Pass Details

Date: 13 April 2024
Orbit: 747 x 793 km, 98.8° (Epoch: 23 May)

Event Time Altitude Azimuth Distance (km) Brightness Sun altitude
Rises 12:50:15 0° 18° (NNE) 3,299 6.4 -9.4°
Reaches altitude 10° 12:52:38 10° 23° (NNE) 2,367 5.7 -8.9°
Maximum altitude 12:57:46 56° 101° (E) 944 3.4 -7.9°
Drops below altitude 10° 13:02:51 10° 179° (S) 2,345 4.9 -7.0°
Sets 13:05:12 0° 183° (S) 3,265 5.5 -6.5°
